STARLINK-2736 (48640 NORAD) Tracking and Keplerian Element Data

This shows tracking and keplerian element data for the satellite.

Feedback or suggestion? Click here.




ElementValue
Catalog48640
NameSTARLINK-2736
Epoch Orbit1147
Epoch Day215.16667824
Epoch Year2021
RAAN96.2765
Inclination53.0532
Eccentricity0.0001709
Argument of Perigee83.5892
Mean Anonmoly249.4442
Mean Motion15.06389595
Decay Rate0.00025988
L11 48640U 21044C 21215.16667824 .00025988 00000-0 17576-2 0 9994
L22 48640 53.0532 96.2765 0001709 83.5892 249.4442 15.06389595 11472

Live tracking and technical data element details for STARLINK-2736 (NORAD 48640). STARLINK-2736 can be tracked NOW for your location showing map with azimuth and elevation plus other details from your city location.

Track the satellite on the map from your city or location and see movement details for azimuth, elevation, latitude, longitude, range, height, and movement on the map or in text.







IsCatalogInMostPopularTable: catalog: 48640, numindb: 11
Update: records affected: 1



GetName: 48640 STARLINK-2736

Hit Count: updated at: Tue, 03 Aug 2021 19:59:15 GMT